Location: Bow
(51.5261°N, 0.0167°W)
Time: 14:22:36
(UTC+00:00)

Cosmos 1833 Rocket - Pass Details

Date: 18 September 2020
Orbit: 831 x 841 km, 71.0° (Epoch: 27 October)

Event Time Altitude Azimuth Distance (km) Brightness Sun altitude
Rises 19:57:41 0° 331° (NNW) 3,408 6.8 -17.5°
Reaches altitude 10° 20:00:24 10° 341° (NNW) 2,471 5.8 -17.8°
Maximum altitude 20:05:29 32° 44° (NE) 1,404 3.7 -18.5°
Enters shadow 20:07:26 26° 80° (E) 1,609 3.7 -18.8°
